This is the latest recevied weather packets stored in our database for station/object IZ5MJO-13. If no packets are shown the sender has not sent any weather packets the latest 10 day(s).
| Time | Temp. | Humidity | Pressure | Rain* | Wind** | Luminosity | Snow |
|---|---|---|---|---|---|---|---|
| 1788038402 | 22.78° C | 43% | 1006 hPa | - | - | - | - |
| 1788037502 | 22.78° C | 42% | 1005.9 hPa | - | - | - | - |
| 1788036602 | 22.78° C | 41% | 1005.9 hPa | - | - | - | - |
| 1788035702 | 22.78° C | 42% | 1005.9 hPa | - | - | - | - |
| 1788034801 | 22.78° C | 41% | 1006 hPa | - | - | - | - |
| 1788033901 | 23.33° C | 41% | 1006 hPa | - | - | - | - |
| 1788033001 | 23.33° C | 41% | 1005.9 hPa | - | - | - | - |
| 1788032101 | 23.33° C | 41% | 1006 hPa | - | - | - | - |
| 1788031200 | 23.33° C | 42% | 1006 hPa | - | - | - | - |
| 1788030300 | 23.89° C | 42% | 1005.8 hPa | - | - | - | - |
| 1788029400 | 23.89° C | 41% | 1005.8 hPa | - | - | - | - |
| 1788028500 | 24.44° C | 38% | 1005.5 hPa | - | - | - | - |
| 1788027600 | 25° C | 39% | 1005.6 hPa | - | - | - | - |
| 1788026700 | 25° C | 38% | 1005.5 hPa | - | - | - | - |
| 1788025803 | 26.11° C | 38% | 1005.2 hPa | - | - | - | - |
| 1788024903 | 28.33° C | 35% | 1005.3 hPa | - | - | - | - |
| 1788024003 | 28.89° C | 35% | 1005.2 hPa | - | - | - | - |
| 1788023103 | 29.44° C | 34% | 1005.1 hPa | - | - | - | - |
| 1788022203 | 29.44° C | 34% | 1005.1 hPa | - | - | - | - |
| 1788021302 | 30.56° C | 32% | 1005.1 hPa | - | - | - | - |
| 1788020402 | 32.22° C | 31% | 1005.1 hPa | - | - | - | - |
| 1788019502 | 32.22° C | 30% | 1005.1 hPa | - | - | - | - |
| 1788018602 | 32.78° C | 30% | 1005.2 hPa | - | - | - | - |
| 1788017702 | 32.78° C | 28% | 1005.3 hPa | - | - | - | - |
| 1788016802 | 33.89° C | 27% | 1005.5 hPa | - | - | - | - |
* Rain since midnight (hover to see other rain measurements)
** Current wind speed in m/s (hover to see current wind gust speed)